Waarnemingen

Advertentie
Mijn weer
Vlissingen, Nederland (6310): temperatuur & dauwpunt: 20.03.2017 00:00:00 - 26.03.2017 00:00:00 (CET)Vlissingen, Nederland (6310): temperatuur 5cm: 20.03.2017 00:00:00 - 26.03.2017 00:00:00 (CET)Vlissingen, Nederland (6310): windsnelheid & windstoten: 20.03.2017 00:00:00 - 26.03.2017 00:00:00 (CET)Vlissingen, Nederland (6310): windrichting: 20.03.2017 00:00:00 - 26.03.2017 00:00:00 (CET)Vlissingen, Nederland (6310): luchtdruk: 20.03.2017 00:00:00 - 26.03.2017 00:00:00 (CET)Vlissingen, Nederland (6310): zicht: 20.03.2017 00:00:00 - 26.03.2017 00:00:00 (CET)Vlissingen, Nederland (6310): neerslag: 20.03.2017 00:00:00 - 26.03.2017 00:00:00 (CET)
Datum & Tijd tt [°C] td [°C] tt 5cm [°C] ff [km/u] ff [kn] fx [km/u] fx [kn] dd ppp [hPa] vv [km] rr [mm]
26.03.2017 00:00:00 8,1 2,0 7,1 29 16 43 23 NO 1025,0 10 0,0
25.03.2017 23:00:00 8,5 1,2 7,5 31 17 43 23 NO 1025,1 10 0,0
25.03.2017 22:00:00 9,1 1,0 8,0 31 17 43 23 NO 1025,0 10 0,0
25.03.2017 21:00:00 9,8 1,2 8,6 29 16 43 23 NO 1025,2 10 0,0
25.03.2017 20:00:00 10,4 1,6 9,1 26 14 40 21 NO 1025,0 10 0,0
25.03.2017 19:00:00 11,5 0,3 10,1 29 16 43 23 NO 1024,6 10 0,0
25.03.2017 18:00:00 12,7 -0,2 11,8 39 21 50 27 NO 1024,5 10 0,0
25.03.2017 17:00:00 13,3 0,9 12,9 42 23 54 29 NO 1025,0 10 0,0
25.03.2017 16:00:00 13,6 1,2 13,7 42 23 54 29 NO 1025,7 10 0,0
25.03.2017 15:00:00 13,3 1,8 13,9 42 23 58 31 NO 1026,5 10 0,0
25.03.2017 14:00:00 12,9 1,6 13,1 44 24 58 31 NO 1027,3 10 0,0
25.03.2017 13:00:00 12,4 2,0 13,5 42 23 58 31 NO 1028,2 10 0,0
25.03.2017 12:00:00 11,8 2,3 13,0 44 24 58 31 NO 1029,2 10 0,0
25.03.2017 11:00:00 10,9 3,1 11,9 35 19 47 25 NO 1029,8 10 0,0
25.03.2017 10:00:00 9,1 3,5 10,0 28 15 36 19 NO 1030,4 10 0,0
25.03.2017 09:00:00 7,9 3,1 8,5 24 13 32 18 NO 1030,6 10 0,0
25.03.2017 08:00:00 6,2 2,7 5,3 18 10 25 14 NO 1030,6 10 0,0
25.03.2017 07:00:00 5,0 2,0 3,8 21 11 29 16 NO 1030,6 10 0,0
25.03.2017 06:00:00 5,2 2,2 4,2 24 13 36 19 NO 1030,4 10 0,0
25.03.2017 05:00:00 5,8 2,8 4,7 24 13 32 18 NO 1030,6 10 0,0
25.03.2017 04:00:00 6,1 2,7 5,0 26 14 36 19 NO 1030,7 10 0,0
25.03.2017 03:00:00 6,5 2,8 5,3 22 12 25 14 NO 1030,8 10 0,0
25.03.2017 02:00:00 7,2 2,7 5,9 26 14 36 19 NO 1031,1 10 0,0
25.03.2017 01:00:00 7,3 3,3 6,0 24 13 32 18 NO 1031,0 10 0,0
25.03.2017 00:00:00 7,7 3,7 6,4 22 12 29 16 NO 1031,4 10 0,0
24.03.2017 23:00:00 8,7 3,8 7,2 22 12 36 19 NO 1031,3 10 0,0
24.03.2017 22:00:00 8,9 4,2 7,5 21 11 29 16 NO 1031,1 10 0,0
24.03.2017 21:00:00 9,4 4,8 7,9 21 11 25 14 NO 1030,5 10 0,0
24.03.2017 20:00:00 10,9 4,6 8,9 18 10 29 16 ONO 1029,4 10 0,0
24.03.2017 19:00:00 11,8 5,0 10,0 24 13 36 19 ONO 1029,1 10 0,0
24.03.2017 18:00:00 12,6 4,7 11,5 31 17 47 25 NO 1028,7 10 0,0
24.03.2017 17:00:00 12,8 4,9 12,6 24 13 47 25 ONO 1028,2 10 0,0
24.03.2017 16:00:00 12,7 5,3 13,3 26 14 40 21 ONO 1028,1 10 0,0
24.03.2017 15:00:00 12,1 5,5 13,2 28 15 40 21 ONO 1028,1 10 0,0
24.03.2017 14:00:00 11,5 5,6 13,0 29 16 50 27 NO 1027,7 10 0,0
24.03.2017 13:00:00 10,5 5,7 12,1 28 15 43 23 ONO 1028,3 9 0,0
24.03.2017 12:00:00 10,3 5,5 12,6 24 13 40 21 ONO 1028,5 10 0,0
24.03.2017 11:00:00 9,2 5,0 10,4 24 13 40 21 O 1028,3 8 0,0
24.03.2017 10:00:00 7,8 4,6 7,8 26 14 43 23 O 1027,9 7 0,0
24.03.2017 09:00:00 7,0 4,6 6,6 26 14 40 21 ONO 1027,4 6 0,0
24.03.2017 08:00:00 6,5 4,7 5,7 22 12 32 18 ONO 1026,7 4,7 0,0
24.03.2017 07:00:00 6,0 4,5 5,1 26 14 40 21 ONO 1024,9 4,7 0,0
24.03.2017 06:00:00 6,1 4,5 5,2 28 15 43 23 ONO 1023,9 4,7 0,0
24.03.2017 05:00:00 6,4 4,5 5,5 31 17 50 27 ONO 1023,6 5 0,0
24.03.2017 04:00:00 6,6 4,5 5,7 26 14 43 23 ONO 1023,1 6 0,0
24.03.2017 03:00:00 7,1 4,4 6,2 29 16 47 25 ONO 1023,3 8 0,0
24.03.2017 02:00:00 7,5 4,6 6,6 26 14 43 23 ONO 1023,7 9 0,0
24.03.2017 01:00:00 7,7 4,7 6,7 31 17 47 25 ONO 1022,4 10 0,0
24.03.2017 00:00:00 8,3 4,9 7,0 24 13 36 19 ONO 1022,0 10 0,0
23.03.2017 23:00:00 8,7 5,1 7,6 28 15 43 23 NO 1020,8 10 0,0
23.03.2017 22:00:00 9,6 5,1 8,3 28 15 43 23 NO 1019,9 10 0,0
23.03.2017 21:00:00 10,3 5,2 8,9 28 15 40 21 ONO 1019,0 10 0,0
23.03.2017 20:00:00 10,7 5,5 9,7 34 18 43 23 NO 1017,8 10 0,0
23.03.2017 19:00:00 11,2 5,8 10,0 28 15 36 19 NO 1017,2 10 0,0
23.03.2017 18:00:00 12,3 5,6 11,4 28 15 43 23 ONO 1016,3 10 0,0
23.03.2017 17:00:00 12,8 5,6 12,6 35 19 47 25 ONO 1015,6 10 0,0
23.03.2017 16:00:00 13,0 5,4 13,6 29 16 43 23 ONO 1015,3 10 0,0
23.03.2017 15:00:00 12,7 4,7 12,6 28 15 43 23 ONO 1015,3 10 0,0
23.03.2017 14:00:00 12,2 4,5 13,4 28 15 43 23 ONO 1015,3 10 0,0
23.03.2017 13:00:00 11,8 4,1 13,2 29 16 40 21 O 1015,4 10 0,0
23.03.2017 12:00:00 10,8 4,9 11,8 29 16 47 25 ONO 1015,3 10 0,0
23.03.2017 11:00:00 9,6 3,8 10,3 24 13 40 21 ONO 1014,9 10 0,0
23.03.2017 10:00:00 8,5 4,5 9,4 24 13 36 19 ONO 1015,1 10 0,0
23.03.2017 09:00:00 7,4 4,4 8,5 21 11 29 16 ONO 1014,8 9 0,0
23.03.2017 08:00:00 5,4 3,7 4,5 15 8 18 10 NO 1014,7 5 0,0
23.03.2017 07:00:00 4,4 2,9 3,2 9 5 14 8 NO 1014,2 6 0,0
23.03.2017 06:00:00 5,7 3,5 4,1 16 9 22 12 ONO 1013,6 8 0,0
23.03.2017 05:00:00 5,9 3,4 4,3 16 9 22 12 ONO 1013,1 10 0,0
23.03.2017 04:00:00 7,2 4,0 6,1 22 12 25 14 O 1013,3 10 0,0
23.03.2017 03:00:00 7,1 4,0 5,9 21 11 25 14 O 1013,4 10 0,0
23.03.2017 02:00:00 7,7 4,1 6,5 22 12 29 16 O 1013,1 10 0,0
23.03.2017 01:00:00 7,9 4,1 6,6 24 13 29 16 O 1012,9 10 0,0
23.03.2017 00:00:00 8,6 3,6 7,2 24 13 29 16 O 1012,6 10 0,0
22.03.2017 23:00:00 8,6 3,9 7,7 21 11 25 14 O 1012,6 10 0,0
22.03.2017 22:00:00 9,0 4,8 7,8 21 11 25 14 OZO 1012,4 10 0,0
22.03.2017 21:00:00 9,2 4,8 7,8 21 11 25 14 OZO 1012,2 10 0,0
22.03.2017 20:00:00 9,6 3,7 8,1 22 12 25 14 O 1011,9 10 0,0
22.03.2017 19:00:00 9,9 3,1 7,9 16 9 29 16 ZO 1011,5 10 0,0
22.03.2017 18:00:00 9,7 4,2 8,7 21 11 25 14 ZZO 1011,2 10 0,0
22.03.2017 17:00:00 10,2 3,1 9,8 24 13 32 18 ZZO 1010,9 10 0,0
22.03.2017 16:00:00 10,3 2,5 9,8 31 17 40 21 ZZO 1011,0 10 0,0
22.03.2017 15:00:00 10,3 1,8 10,4 34 18 43 23 ZZO 1011,0 10 0,0
22.03.2017 14:00:00 10,7 1,9 10,7 34 18 40 21 Z 1011,1 10 0,0
22.03.2017 13:00:00 10,4 3,0 12,2 39 21 47 25 ZZO 1011,3 10 0,0
22.03.2017 12:00:00 9,8 3,0 11,6 39 21 47 25 ZZO 1011,4 10 0,0
22.03.2017 11:00:00 9,0 3,0 10,6 31 17 40 21 ZZO 1011,7 10 0,0
22.03.2017 10:00:00 7,8 2,6 8,7 31 17 36 19 ZZO 1012,1 10 0,0
22.03.2017 09:00:00 6,5 2,0 6,8 31 17 40 21 ZZO 1011,8 10 0,0
22.03.2017 08:00:00 5,6 1,9 5,0 26 14 36 19 ZZO 1011,6 10 0,0
22.03.2017 07:00:00 5,3 1,6 4,2 29 16 36 19 ZZO 1011,5 10 0,0
22.03.2017 06:00:00 5,4 1,8 4,1 26 14 32 18 ZZO 1011,7 10 0,0
22.03.2017 05:00:00 5,1 1,9 4,0 22 12 29 16 ZZO 1011,6 10 0,0
22.03.2017 04:00:00 5,3 2,0 4,1 22 12 29 16 Z 1012,2 10 0,0
22.03.2017 03:00:00 5,5 2,2 4,0 22 12 29 16 Z 1012,6 10 0,0
22.03.2017 02:00:00 5,7 2,4 4,3 21 11 25 14 Z 1012,7 10 0,0
22.03.2017 01:00:00 6,2 2,8 4,7 21 11 25 14 Z 1012,6 10 0,0
22.03.2017 00:00:00 6,3 2,9 5,0 22 12 29 16 Z 1013,0 10 0,0
21.03.2017 23:00:00 6,6 2,4 5,3 24 13 29 16 ZZW 1013,1 10 0,0
21.03.2017 22:00:00 7,1 1,8 5,7 22 12 32 18 Z 1012,9 10 0,0
21.03.2017 21:00:00 7,4 2,1 5,7 22 12 29 16 ZZW 1012,9 10 0,0
21.03.2017 20:00:00 7,5 2,2 5,9 22 12 29 16 ZW 1012,7 10 0,0
21.03.2017 19:00:00 8,4 3,9 7,4 29 16 36 19 WZW 1012,3 10 0,0
21.03.2017 18:00:00 8,5 3,2 7,9 28 15 36 19 WZW 1011,7 10 0,0
21.03.2017 17:00:00 8,9 2,0 9,1 28 15 32 18 WZW 1011,5 10 0,0
21.03.2017 16:00:00 8,6 1,3 9,3 31 17 40 21 WZW 1011,5 10 0,0
21.03.2017 15:00:00 8,7 1,3 9,5 29 16 40 21 W 1011,3 10 0,0
21.03.2017 14:00:00 8,2 1,4 9,3 31 17 43 23 W 1011,2 10 0,0
21.03.2017 13:00:00 8,3 1,9 9,0 34 18 43 23 W 1010,9 10 0,0
21.03.2017 12:00:00 8,3 0,5 8,6 35 19 47 25 W 1010,8 10 0,0
21.03.2017 11:00:00 8,1 1,6 8,5 31 17 47 25 W 1010,0 10 0,0
21.03.2017 10:00:00 8,2 2,0 7,8 31 17 54 29 W 1009,0 10 0,0
21.03.2017 09:00:00 8,2 3,6 7,5 35 19 47 25 W 1008,2 10 0,0
21.03.2017 08:00:00 8,1 4,2 7,3 35 19 50 27 W 1007,5 10 0,0
21.03.2017 07:00:00 8,5 6,1 7,5 34 18 40 21 W 1007,0 10 0,0
21.03.2017 06:00:00 8,1 7,2 7,2 28 15 36 19 ZW 1006,5 9 0,0
21.03.2017 05:00:00 8,2 7,3 7,4 31 17 36 19 WZW 1006,4 9 0,0
21.03.2017 04:00:00 8,1 7,1 7,4 31 17 36 19 WZW 1006,2 10 0,0
21.03.2017 03:00:00 8,3 7,2 7,3 29 16 36 19 WZW 1006,0 10 0,0
21.03.2017 02:00:00 8,8 7,5 7,8 29 16 40 21 W 1005,9 10 0,0
21.03.2017 01:00:00 9,1 8,2 8,5 34 18 40 21 WZW 1005,5 8 0,0
21.03.2017 00:00:00 9,3 8,3 8,9 37 20 50 27 WZW 1005,3 10 0,0
20.03.2017 23:00:00 9,9 8,9 9,3 39 21 50 27 WZW 1004,9 10 0,2
20.03.2017 22:00:00 9,7 9,4 9,4 35 19 43 23 ZW 1004,5 2,8 1,4
20.03.2017 21:00:00 9,6 9,2 9,3 35 19 43 23 ZW 1004,6 6 0,7
20.03.2017 20:00:00 9,8 8,8 9,5 46 25 61 33 ZW 1004,6 5 0,0
20.03.2017 19:00:00 11,0 7,4 10,3 44 24 54 29 ZW 1004,0 10 0,0
20.03.2017 18:00:00 11,0 7,1 10,4 44 24 65 35 ZW 1004,4 10 0,0
20.03.2017 17:00:00 10,9 7,6 10,4 50 27 65 35 ZW 1004,9 10 0,0
20.03.2017 16:00:00 10,6 7,9 10,3 46 25 76 41 ZW 1005,1 10 0,0
20.03.2017 15:00:00 10,6 8,7 10,2 46 25 61 33 ZW 1005,2 10 0,0
20.03.2017 14:00:00 10,7 9,0 10,6 48 26 61 33 ZW 1005,5 10 0,0
20.03.2017 13:00:00 10,7 8,9 10,6 50 27 61 33 ZW 1005,8 10 0,0
20.03.2017 12:00:00 10,8 8,9 10,6 46 25 61 33 ZW 1006,0 10 0,0
20.03.2017 11:00:00 10,3 8,7 10,0 46 25 61 33 ZW 1006,3 10 0,0
20.03.2017 10:00:00 9,9 9,1 9,6 42 23 58 31 ZW 1006,5 4,2 0,0
20.03.2017 09:00:00 9,5 9,1 9,3 39 21 47 25 ZW 1006,7 2,7 0,3
20.03.2017 08:00:00 9,5 9,3 9,4 34 18 40 21 ZW 1007,1 3,2 0,7
20.03.2017 07:00:00 9,8 9,3 9,5 37 20 47 25 ZW 1007,4 5 1,4
20.03.2017 06:00:00 9,9 9,2 9,6 37 20 47 25 WZW 1007,4 5 0,2
20.03.2017 05:00:00 10,0 9,1 9,7 35 19 43 23 WZW 1007,5 5 0,0
20.03.2017 04:00:00 9,8 8,9 9,5 39 21 47 25 WZW 1007,7 6 0,0
20.03.2017 03:00:00 9,9 8,8 9,5 35 19 50 27 WZW 1008,1 5 0,0
20.03.2017 02:00:00 10,1 8,6 9,8 41 22 50 27 WZW 1008,3 6 0,0
20.03.2017 01:00:00 10,5 8,7 10,0 39 21 50 27 WZW 1008,4 7 0,0
20.03.2017 00:00:00 10,4 8,7 10,1 39 21 47 25 WZW 1008,4 7 0,0

tt = temperatuur
td = dauwpunt
tt 5cm = temperatuur 5cm
ff = windsnelheid
fx = windstoten
dd = windrichting
ppp = luchtdruk
vv = zicht
rr = neerslag

Weerstations in de omgeving